Sisseton, SD

3:40 AM CDT on May 30, 2017 (GMT -0500)
Sisseton

Weather History for K8D3 - July, 2014

Change the Weather History Date:

Tuesday, July 22, 2014

  Actual Average Record
Temperature  
Mean Temperature 70 °F 72 °F  
Max Temperature 80 °F 84 °F 112 °F (1934)
Min Temperature 59 °F 60 °F 45 °F (1947)
Degree Days  
Heating Degree Days 0 0  
Month to date heating degree days 15 3  
Since 1 June heating degree days 50 65  
Since 1 July heating degree days 15 3  
Cooling Degree Days 5 7  
Month to date cooling degree days 112 143  
Year to date cooling degree days 261 260  
Since 1 June cooling degree days 200 237  
Growing Degree Days 22 (Base 50)    
Moisture  
Dew Point 61 °F    
Average Humidity 74    
Maximum Humidity 100    
Minimum Humidity 48    
Precipitation  
Precipitation 0.00 in 0.12 in 1.06 in (1991)
Month to date precipitation 0.98 2.65  
Year to date precipitation 18.02 13.37  
Sea Level Pressure  
Sea Level Pressure 30.04 in    
Wind  
Wind Speed 12 mph (North)    
Max Wind Speed 22 mph    
Max Gust Speed 28 mph    
T = Trace of Precipitation, MM = Missing Value Source: NWS Daily Summary

Daily Weather History Graph

Daily Weather History Graph

Search for Another Location

Airport or City:

Trip Planner

Search our weather history database for the weather conditions in past years. The results will help you decide how hot, cold, wet, or windy it might be!

Date:

Astronomy

Jul. 22, 2014 Rise Set
Actual Time 6:00 AM CDT 9:07 PM CDT
Civil Twilight 5:24 AM CDT 9:43 PM CDT
Nautical Twilight 4:38 AM CDT 10:29 PM CDT
Astronomical Twilight 3:41 AM CDT 11:25 PM CDT
Moon 2:36 AM CDT (7/22) 5:45 PM CDT (7/22)
Length of Visible Light 16h 19m
Length of Day
15h 07m
Waning Crescent, 16% of the Moon is Illuminated
Jul 22
Waning Crescent
Jul 26
New
Aug 3
First Quarter
Aug 10
Full
Aug 17
Last Quarter

Hourly Weather History & Observations

Time (CDT) Temp. Heat Index Dew Point Humidity Pressure Visibility Wind Dir Wind Speed Gust Speed Precip Events Conditions
12:56 AM 69.1 °F - 64.0 °F 84% 29.79 in - NNW 11.5 mph - N/A   Unknown
1:56 AM 66.9 °F - 64.9 °F 93% 29.81 in - NNW 11.5 mph - N/A   Unknown
2:56 AM 66.9 °F - 64.9 °F 93% 29.84 in - NNW 12.7 mph - N/A   Unknown
3:56 AM 66.0 °F - 64.0 °F 93% 29.86 in - NNW 12.7 mph - N/A   Unknown
4:56 AM 64.9 °F - 64.0 °F 97% 29.91 in - NNW 13.8 mph - N/A   Unknown
5:56 AM 64.9 °F - 64.0 °F 97% 29.94 in - NNW 11.5 mph - N/A   Unknown
6:56 AM 66.0 °F - 64.9 °F 96% 29.96 in - NNW 9.2 mph - N/A   Unknown
7:56 AM 68.0 °F - 64.9 °F 90% 29.99 in - North 15.0 mph - N/A   Unknown
8:56 AM 70.0 °F - 62.1 °F 76% 30.02 in - North 17.3 mph - N/A   Unknown
9:56 AM 71.1 °F - 62.1 °F 73% 30.04 in - North 17.3 mph - N/A   Unknown
10:56 AM 73.0 °F - 61.0 °F 66% 30.05 in - NNE 16.1 mph - N/A   Unknown
12:56 PM 78.1 °F - 57.9 °F 50% 30.07 in - NNE 17.3 mph - N/A   Unknown
1:56 PM 78.1 °F - 57.0 °F 48% 30.09 in - NE 13.8 mph 21.9 mph N/A   Unknown
2:56 PM 79.0 °F - 59.0 °F 50% 30.09 in - NNE 13.8 mph - N/A   Unknown
3:56 PM 79.0 °F - 59.0 °F 50% 30.11 in - NNE 16.1 mph 21.9 mph N/A   Unknown
4:56 PM 80.1 °F 80.7 °F 59.0 °F 48% 30.12 in - NNE 10.4 mph - N/A   Unknown
5:56 PM 79.0 °F - 59.0 °F 50% 30.13 in - NNE 10.4 mph - N/A   Unknown
6:56 PM 78.1 °F - 59.0 °F 52% 30.13 in - NNE 11.5 mph - N/A   Unknown
7:56 PM 75.0 °F - 59.0 °F 57% 30.14 in - NE 9.2 mph - N/A   Unknown
8:56 PM 68.0 °F - 62.1 °F 81% 30.17 in - NE 5.8 mph - N/A   Unknown
9:56 PM 64.9 °F - 61.0 °F 87% 30.20 in - NNW 3.5 mph - N/A   Unknown
10:56 PM 63.0 °F - 60.1 °F 90% 30.21 in - NW 4.6 mph - N/A   Unknown
11:56 PM 61.0 °F - 60.1 °F 97% 30.22 in - NW 3.5 mph - N/A   Unknown